User: anonymous   Login
Location: Unspecified
(0.0000°N, 0.0000°E)
Time: 07:43:47
(UTC+00:00)
Language:

STARLINK-36216 - Orbit

View from above orbital plane
View from above orbital plane
View from above satellite
View from above satellite

Ground track
Ground track

The orbit is defined by the following mean orbital elements,

1 67217U          26145.26139589 +.00000000 +00000-0 +30934-3 0 00009
2 67217  70.0022 341.4156 0002583 265.3941  94.6923 14.98346132    02
Epoch (UTC): 25 May 2026 06:16:24
Eccentricity: 0.0002583
inclination: 70.0022°
perigee height: 570 km
apogee height: 574 km
right ascension of ascending node: 341.4156°
argument of perigee: 265.3941°
revolutions per day: 14.98346132
mean anomaly at epoch: 94.6923°

The dashed part of the orbit path shows where the satellite is in the earth's shadow,  

DLR